Location: Newark
(23.3970°S, 47.6010°W)
Time: 13:21:36
(UTC+00:00)

Vanguard 1 - Visible Passes

Search period start: 17 February 2020 00:00
Search period end: 27 February 2020 00:00
Orbit: 650 x 3833 km, 34.2° (Epoch: 16 February)

Date Brightness Start Highest point End Pass type
(mag) Time Alt. Az. Time Alt. Az. Time Alt. Az.
17 Feb 11.3 01:09:18 10° W 01:27:50 14° ESE 01:29:27 10° ESE visible
17 Feb 12.2 03:40:38 53° S 03:40:53 54° S 03:59:57 10° E visible
17 Feb 12.6 05:53:25 16° WSW 06:07:36 78° SSE 06:31:27 10° ENE visible
17 Feb 13.0 08:15:07 10° WSW 08:34:45 59° NW 08:57:08 10° NE visible
17 Feb 10.1 23:10:52 10° NW 23:16:02 61° NE 23:22:02 19° ESE visible
18 Feb 11.7 01:30:30 10° W 01:48:37 16° ESE 01:51:26 10° ESE visible
18 Feb 12.2 04:01:26 55° S 04:02:45 56° SSE 04:22:42 10° E visible
18 Feb 12.5 06:14:15 14° WSW 06:29:20 88° SSE 06:53:20 10° ENE visible
18 Feb 13.1 08:36:57 10° WSW 08:56:11 49° NW 09:17:32 10° NNE visible
18 Feb 10.1 23:31:33 10° WNW 23:36:55 89° NNE 23:42:23 24° ESE visible
19 Feb 12.1 01:51:45 10° WSW 02:09:42 19° ESE 02:13:36 10° ESE visible
19 Feb 12.2 04:22:33 58° S 04:24:33 61° SSE 04:45:25 10° E visible
19 Feb 12.5 06:35:23 14° WSW 06:50:58 81° NNW 07:14:54 10° NE visible
19 Feb 10.4 23:52:29 10° WNW 23:58:02 69° SSW 00:02:31 30° SE visible
20 Feb 12.5 02:13:01 10° WSW 02:31:02 21° ESE 02:36:00 10° ESE visible
20 Feb 12.1 04:43:53 63° SSW 04:46:16 69° SSE 05:07:58 10° ENE visible
20 Feb 12.6 06:56:45 14° WSW 07:12:32 69° NW 07:36:05 10° NE visible
21 Feb 10.9 00:13:36 10° W 00:19:20 54° SSW 00:22:28 37° SE visible
21 Feb 12.8 02:34:13 10° WSW 02:52:31 23° ESE 02:58:36 10° E visible
21 Feb 12.1 05:05:23 69° SSW 05:07:53 78° SSE 05:30:15 10° ENE visible
21 Feb 12.7 07:18:16 14° WSW 07:34:05 57° NW 07:56:54 10° NE visible
21 Feb 9.7 22:15:00 10° NW 22:19:32 62° NNE 22:26:12 10° ESE visible
22 Feb 11.2 00:34:48 10° W 00:40:46 46° S 00:42:16 42° SSE visible
22 Feb 13.2 03:14:04 26° ESE 03:14:04 26° ESE 03:21:17 10° E visible
22 Feb 12.0 05:26:56 73° WSW 05:29:26 89° SSE 05:52:13 10° ENE visible
22 Feb 12.9 07:39:49 13° WSW 07:55:37 46° NW 08:17:20 10° NNE visible
22 Feb 9.7 22:35:45 10° WNW 22:40:26 85° SSW 22:47:35 10° ESE visible
23 Feb 11.5 00:56:03 10° WSW 01:01:58 42° S 01:01:58 42° S visible
23 Feb 13.2 03:35:37 29° E 03:35:37 29° E 03:43:57 10° E visible
23 Feb 12.1 05:48:30 70° W 05:50:57 79° NNW 06:13:50 10° NE visible
23 Feb 13.1 08:01:22 11° W 08:17:11 37° NW 08:37:19 10° NNE visible
23 Feb 10.2 22:56:45 10° W 23:01:31 60° SSW 23:08:54 10° ESE visible
24 Feb 11.8 01:17:15 10° WSW 01:21:36 35° SSW 01:21:36 35° SSW visible
24 Feb 13.1 03:57:06 32° E 03:57:06 32° E 04:06:29 10° ENE visible
24 Feb 12.1 06:09:59 62° WNW 06:12:28 66° NNW 06:35:04 10° NE visible
24 Feb 13.4 08:23:43 10° W 08:38:51 28° NW 08:56:45 10° N visible
24 Feb 10.7 23:17:56 10° W 23:22:45 45° SSW 23:28:30 16° SE visible
25 Feb 12.2 01:38:23 10° WSW 01:41:12 26° SW 01:41:12 26° SW visible
25 Feb 13.0 04:18:30 35° ENE 04:18:30 35° ENE 04:28:46 10° ENE visible
25 Feb 12.3 06:31:21 51° WNW 06:34:00 54° NW 06:55:54 10° NE visible
25 Feb 11.1 23:39:11 10° WSW 23:44:06 38° S 23:48:04 23° SE visible
26 Feb 12.6 01:59:25 10° WSW 02:00:46 17° SW 02:00:46 17° SW visible
26 Feb 13.0 04:39:46 37° ENE 04:39:46 37° ENE 04:50:43 10° ENE visible
26 Feb 12.5 06:52:36 41° NW 06:55:36 43° NW 07:16:20 10° NNE visible
